Time,TemperatureF,DewpointF,PressureIn,WindDirection,WindDirectionDegrees,WindSpeedMPH,WindSpeedGustMPH,Humidity,HourlyPrecipIn,Conditions,Clouds,dailyrainin,SolarRadiationWatts/m^2,SoftwareType,DateUTC
2013-02-16 00:01:00,55.0,51.0,-100.00,NNW,348,3.0,-999.0,87,0.00,,,-99.99,0.000000,,2013-02-16 05:01:00,
2013-02-16 00:12:00,55.0,51.0,-100.00,North,355,2.0,-999.0,87,0.00,,,-99.99,0.000000,,2013-02-16 05:12:00,
2013-02-16 00:22:00,55.0,51.0,-100.00,North,355,2.0,-999.0,87,0.00,,,-99.99,0.000000,,2013-02-16 05:22:00,
2013-02-16 00:32:00,54.0,51.0,-100.00,NNE,14,2.0,-999.0,88,0.00,,,-99.99,0.100000,,2013-02-16 05:32:00,
2013-02-16 00:42:00,54.0,51.0,-100.00,NNE,16,1.0,-999.0,88,0.00,,,-99.99,0.100000,,2013-02-16 05:42:00,
2013-02-16 00:52:00,54.0,51.0,-100.00,NNE,16,1.0,-999.0,88,0.00,,,-99.99,0.100000,,2013-02-16 05:52:00,
2013-02-16 01:02:00,53.0,50.0,-100.00,SSW,193,1.0,-999.0,89,0.00,,,-99.99,0.100000,,2013-02-16 06:02:00,
2013-02-16 01:11:00,53.0,50.0,-100.00,NNW,334,2.0,-999.0,89,0.00,,,-99.99,0.000000,,2013-02-16 06:11:00,
2013-02-16 01:21:00,53.0,50.0,-100.00,NNW,334,2.0,-999.0,89,0.00,,,-99.99,0.000000,,2013-02-16 06:21:00,
2013-02-16 01:32:00,53.0,51.0,-100.00,NNW,344,2.0,-999.0,90,0.00,,,-99.99,0.000000,,2013-02-16 06:32:00,
2013-02-16 01:42:00,53.0,51.0,-100.00,NE,37,2.0,-999.0,90,0.00,,,-99.99,0.000000,,2013-02-16 06:42:00,
2013-02-16 01:52:00,53.0,51.0,-100.00,NE,37,2.0,-999.0,90,0.00,,,-99.99,0.000000,,2013-02-16 06:52:00,
2013-02-16 02:02:00,53.0,51.0,-100.00,North,359,3.0,-999.0,90,0.00,,,-99.99,0.000000,,2013-02-16 07:02:00,
2013-02-16 02:11:00,53.0,51.0,-100.00,North,359,2.0,-999.0,90,0.00,,,-99.99,0.000000,,2013-02-16 07:11:00,
2013-02-16 02:21:00,53.0,51.0,-100.00,North,359,2.0,-999.0,90,0.00,,,-99.99,0.000000,,2013-02-16 07:21:00,
2013-02-16 02:32:00,53.0,50.0,-100.00,North,4,3.0,-999.0,90,0.00,,,-99.99,0.000000,,2013-02-16 07:32:00,
2013-02-16 02:42:00,53.0,50.0,-100.00,North,354,3.0,-999.0,90,0.00,,,-99.99,0.000000,,2013-02-16 07:42:00,
2013-02-16 02:53:00,53.0,50.0,-100.00,North,354,3.0,-999.0,90,0.00,,,-99.99,0.000000,,2013-02-16 07:53:00,
2013-02-16 03:01:00,53.0,50.0,-100.00,North,2,3.0,-999.0,90,0.00,,,-99.99,0.100000,,2013-02-16 08:01:00,
2013-02-16 03:11:00,52.0,49.0,-100.00,North,0,2.0,-999.0,89,0.00,,,-99.99,0.100000,,2013-02-16 08:11:00,
2013-02-16 03:21:00,52.0,49.0,-100.00,North,0,2.0,-999.0,89,0.00,,,-99.99,0.100000,,2013-02-16 08:21:00,
2013-02-16 03:31:00,52.0,49.0,-100.00,NNW,342,3.0,-999.0,90,0.00,,,-99.99,0.000000,,2013-02-16 08:31:00,
2013-02-16 03:42:00,52.0,49.0,-100.00,North,350,3.0,-999.0,90,0.00,,,-99.99,0.100000,,2013-02-16 08:42:00,
2013-02-16 03:52:00,52.0,49.0,-100.00,North,350,3.0,-999.0,90,0.00,,,-99.99,0.100000,,2013-02-16 08:52:00,
2013-02-16 04:01:00,52.0,49.0,-100.00,NNW,346,2.0,-999.0,90,0.00,,,-99.99,0.000000,,2013-02-16 09:01:00,
2013-02-16 04:11:00,51.0,49.0,-100.00,North,355,2.0,-999.0,90,0.00,,,-99.99,0.100000,,2013-02-16 09:11:00,
2013-02-16 04:21:00,51.0,49.0,-100.00,North,355,2.0,-999.0,90,0.00,,,-99.99,0.100000,,2013-02-16 09:21:00,
2013-02-16 04:32:00,51.0,48.0,-100.00,North,359,2.0,-999.0,90,0.00,,,-99.99,0.100000,,2013-02-16 09:32:00,
2013-02-16 04:42:00,50.0,47.0,-100.00,NNE,14,1.0,-999.0,90,0.00,,,-99.99,0.000000,,2013-02-16 09:42:00,
2013-02-16 04:52:00,50.0,47.0,-100.00,NNE,14,1.0,-999.0,90,0.00,,,-99.99,0.000000,,2013-02-16 09:52:00,
2013-02-16 05:01:00,50.0,47.0,-100.00,NNW,337,1.0,-999.0,91,0.00,,,-99.99,0.000000,,2013-02-16 10:01:00,
2013-02-16 05:11:00,50.0,47.0,-100.00,NNW,332,2.0,-999.0,91,0.00,,,-99.99,0.000000,,2013-02-16 10:11:00,
2013-02-16 05:21:00,50.0,47.0,-100.00,NNW,332,2.0,-999.0,91,0.00,,,-99.99,0.000000,,2013-02-16 10:21:00,
2013-02-16 05:31:00,50.0,47.0,-100.00,North,352,2.0,-999.0,91,0.00,,,-99.99,0.000000,,2013-02-16 10:31:00,
2013-02-16 05:42:00,50.0,48.0,-100.00,North,350,2.0,-999.0,92,0.00,,,-99.99,0.000000,,2013-02-16 10:42:00,
2013-02-16 05:52:00,50.0,48.0,-100.00,North,350,2.0,-999.0,92,0.00,,,-99.99,0.000000,,2013-02-16 10:52:00,
2013-02-16 06:02:00,50.0,47.0,-100.00,NNW,343,3.0,-999.0,92,0.00,,,-99.99,0.000000,,2013-02-16 11:02:00,
2013-02-16 06:11:00,49.0,47.0,-100.00,NNW,334,2.0,-999.0,92,0.00,,,-99.99,0.000000,,2013-02-16 11:11:00,
2013-02-16 06:22:00,49.0,47.0,-100.00,NNW,334,2.0,-999.0,92,0.00,,,-99.99,0.000000,,2013-02-16 11:22:00,
2013-02-16 06:32:00,49.0,47.0,-100.00,North,349,2.0,-999.0,92,0.00,,,-99.99,0.000000,,2013-02-16 11:32:00,
2013-02-16 06:42:00,48.0,46.0,-100.00,North,2,1.0,-999.0,92,0.00,,,-99.99,0.000000,,2013-02-16 11:42:00,
2013-02-16 06:52:00,48.0,46.0,-100.00,North,2,1.0,-999.0,92,0.00,,,-99.99,0.000000,,2013-02-16 11:52:00,
2013-02-16 07:02:00,48.0,46.0,-100.00,NNW,344,2.0,-999.0,92,0.00,,,-99.99,0.000000,,2013-02-16 12:02:00,
2013-02-16 07:12:00,48.0,46.0,-100.00,North,354,2.0,-999.0,92,0.00,,,-99.99,0.300000,,2013-02-16 12:12:00,
2013-02-16 07:22:00,48.0,46.0,-100.00,North,354,2.0,-999.0,92,0.00,,,-99.99,0.300000,,2013-02-16 12:22:00,
2013-02-16 07:32:00,47.0,45.0,-100.00,NNW,342,1.0,-999.0,93,0.00,,,-99.99,2.700000,,2013-02-16 12:32:00,
2013-02-16 07:42:00,47.0,46.0,-100.00,ESE,112,0.0,-999.0,93,0.00,,,-99.99,13.600000,,2013-02-16 12:42:00,
2013-02-16 07:52:00,47.0,46.0,-100.00,ESE,112,0.0,-999.0,93,0.00,,,-99.99,13.600000,,2013-02-16 12:52:00,
2013-02-16 08:02:00,47.0,45.0,-100.00,South,171,0.0,-999.0,93,0.00,,,-99.99,26.400000,,2013-02-16 13:02:00,
2013-02-16 08:12:00,48.0,46.0,-100.00,WNW,293,1.0,-999.0,93,0.00,,,-99.99,43.500000,,2013-02-16 13:12:00,
2013-02-16 08:21:00,48.0,46.0,-100.00,WNW,293,1.0,-999.0,93,0.00,,,-99.99,43.500000,,2013-02-16 13:21:00,
2013-02-16 08:32:00,49.0,47.0,-100.00,NNW,348,1.0,-999.0,93,0.00,,,-99.99,60.799999,,2013-02-16 13:32:00,
2013-02-16 08:41:00,51.0,49.0,-100.00,NNW,338,3.0,-999.0,93,0.00,,,-99.99,92.000000,,2013-02-16 13:41:00,
2013-02-16 08:52:00,51.0,49.0,-100.00,NNW,338,3.0,-999.0,93,0.00,,,-99.99,92.000000,,2013-02-16 13:52:00,
2013-02-16 09:01:00,52.0,50.0,-100.00,NNW,343,3.0,-999.0,92,0.00,,,-99.99,149.500000,,2013-02-16 14:01:00,
2013-02-16 09:11:00,54.0,52.0,-100.00,NW,320,1.0,-999.0,92,0.00,,,-99.99,224.300003,,2013-02-16 14:11:00,
2013-02-16 09:21:00,54.0,52.0,-100.00,NW,320,1.0,-999.0,92,0.00,,,-99.99,224.300003,,2013-02-16 14:21:00,
2013-02-16 09:32:00,56.0,53.0,-100.00,WNW,299,1.0,-999.0,91,0.00,,,-99.99,299.100006,,2013-02-16 14:32:00,
2013-02-16 09:42:00,56.0,53.0,-100.00,WNW,299,1.0,-999.0,91,0.00,,,-99.99,299.100006,,2013-02-16 14:42:00,
2013-02-16 09:52:00,58.0,55.0,-100.00,West,277,2.0,-999.0,88,0.00,,,-99.99,360.100006,,2013-02-16 14:52:00,
2013-02-16 10:02:00,60.0,54.0,-100.00,WNW,284,2.0,-999.0,78,0.00,,,-99.99,417.500000,,2013-02-16 15:02:00,
2013-02-16 10:11:00,62.0,51.0,-100.00,WNW,295,5.0,-999.0,68,0.00,,,-99.99,506.100006,,2013-02-16 15:11:00,
2013-02-16 10:22:00,62.0,51.0,-100.00,WNW,295,5.0,-999.0,68,0.00,,,-99.99,506.100006,,2013-02-16 15:22:00,
2013-02-16 10:32:00,63.0,50.0,-100.00,WNW,303,6.0,-999.0,62,0.00,,,-99.99,426.799988,,2013-02-16 15:32:00,
2013-02-16 10:42:00,64.0,49.0,-100.00,NW,319,7.0,-999.0,58,0.00,,,-99.99,603.299988,,2013-02-16 15:42:00,
2013-02-16 10:52:00,64.0,49.0,-100.00,NW,319,7.0,-999.0,58,0.00,,,-99.99,603.299988,,2013-02-16 15:52:00,
2013-02-16 11:01:00,65.0,49.0,-100.00,NW,312,8.0,-999.0,56,0.00,,,-99.99,648.900024,,2013-02-16 16:01:00,
2013-02-16 11:11:00,65.0,48.0,-100.00,NW,309,9.0,-999.0,52,0.00,,,-99.99,686.400024,,2013-02-16 16:11:00,
2013-02-16 11:21:00,65.0,48.0,-100.00,NW,309,9.0,-999.0,52,0.00,,,-99.99,686.400024,,2013-02-16 16:21:00,
2013-02-16 11:32:00,66.0,48.0,-100.00,NW,305,8.0,-999.0,52,0.00,,,-99.99,688.500000,,2013-02-16 16:32:00,
2013-02-16 11:42:00,67.0,49.0,-100.00,NW,310,10.0,-999.0,52,0.00,,,-99.99,815.000000,,2013-02-16 16:42:00,
2013-02-16 11:52:00,67.0,49.0,-100.00,NW,310,10.0,-999.0,52,0.00,,,-99.99,815.000000,,2013-02-16 16:52:00,
2013-02-16 12:01:00,67.0,49.0,-100.00,NW,304,9.0,-999.0,52,0.00,,,-99.99,741.000000,,2013-02-16 17:01:00,
2013-02-16 12:11:00,67.0,49.0,-100.00,NW,315,10.0,-999.0,53,0.00,,,-99.99,671.500000,,2013-02-16 17:11:00,
2013-02-16 12:22:00,67.0,49.0,-100.00,NW,315,10.0,-999.0,53,0.00,,,-99.99,671.500000,,2013-02-16 17:22:00,
2013-02-16 12:32:00,68.0,48.0,-100.00,NW,304,9.0,-999.0,50,0.00,,,-99.99,852.000000,,2013-02-16 17:32:00,
2013-02-16 12:42:00,67.0,48.0,-100.00,NW,310,12.0,-999.0,50,0.00,,,-99.99,618.299988,,2013-02-16 17:42:00,
2013-02-16 12:52:00,67.0,48.0,-100.00,NW,310,12.0,-999.0,50,0.00,,,-99.99,618.299988,,2013-02-16 17:52:00,
2013-02-16 13:02:00,66.0,48.0,-100.00,NW,321,10.0,-999.0,52,0.00,,,-99.99,513.799988,,2013-02-16 18:02:00,
2013-02-16 13:11:00,68.0,48.0,-100.00,NW,314,12.0,-999.0,50,0.00,,,-99.99,610.400024,,2013-02-16 18:11:00,
2013-02-16 13:21:00,68.0,48.0,-100.00,NW,314,12.0,-999.0,50,0.00,,,-99.99,610.400024,,2013-02-16 18:21:00,
2013-02-16 13:33:00,66.0,48.0,-100.00,WNW,297,10.0,-999.0,51,0.00,,,-99.99,442.100006,,2013-02-16 18:33:00,
2013-02-16 13:42:00,66.0,49.0,-100.00,NW,316,10.0,-999.0,53,0.00,,,-99.99,253.300003,,2013-02-16 18:42:00,
2013-02-16 13:52:00,66.0,49.0,-100.00,NW,316,10.0,-999.0,53,0.00,,,-99.99,253.300003,,2013-02-16 18:52:00,
2013-02-16 14:02:00,64.0,49.0,-100.00,NW,308,10.0,-999.0,57,0.00,,,-99.99,84.500000,,2013-02-16 19:02:00,
2013-02-16 14:11:00,64.0,49.0,-100.00,NW,308,10.0,-999.0,57,0.00,,,-99.99,84.500000,,2013-02-16 19:11:00,
2013-02-16 14:21:00,63.0,49.0,-100.00,NW,309,12.0,-999.0,61,0.00,,,-99.99,123.599998,,2013-02-16 19:21:00,
2013-02-16 14:31:00,63.0,51.0,-100.00,NW,314,11.0,-999.0,63,0.00,,,-99.99,344.299988,,2013-02-16 19:31:00,
2013-02-16 14:42:00,62.0,50.0,-100.00,NW,321,14.0,-999.0,63,0.00,,,-99.99,223.500000,,2013-02-16 19:42:00,
2013-02-16 14:52:00,62.0,50.0,-100.00,NW,321,14.0,-999.0,63,0.00,,,-99.99,223.500000,,2013-02-16 19:52:00,
2013-02-16 15:01:00,63.0,51.0,-100.00,NW,323,11.0,-999.0,65,0.00,,,-99.99,445.500000,,2013-02-16 20:01:00,
2013-02-16 15:11:00,62.0,51.0,-100.00,NW,322,13.0,-999.0,66,0.00,,,-99.99,375.200012,,2013-02-16 20:11:00,
2013-02-16 15:21:00,62.0,51.0,-100.00,NW,322,13.0,-999.0,66,0.00,,,-99.99,375.200012,,2013-02-16 20:21:00,
2013-02-16 15:32:00,61.0,49.0,-100.00,NW,325,14.0,-999.0,63,0.00,,,-99.99,348.000000,,2013-02-16 20:32:00,
2013-02-16 15:42:00,62.0,48.0,-100.00,NNW,330,13.0,-999.0,61,0.00,,,-99.99,523.500000,,2013-02-16 20:42:00,
2013-02-16 15:52:00,62.0,48.0,-100.00,NNW,330,13.0,-999.0,61,0.00,,,-99.99,523.500000,,2013-02-16 20:52:00,
2013-02-16 16:02:00,61.0,47.0,-100.00,NW,325,15.0,-999.0,59,0.00,,,-99.99,506.000000,,2013-02-16 21:02:00,
2013-02-16 16:11:00,61.0,47.0,-100.00,NW,325,12.0,-999.0,61,0.00,,,-99.99,461.399994,,2013-02-16 21:11:00,
2013-02-16 16:21:00,61.0,47.0,-100.00,NW,325,12.0,-999.0,61,0.00,,,-99.99,461.399994,,2013-02-16 21:21:00,
2013-02-16 16:32:00,59.0,46.0,-100.00,NW,315,12.0,-999.0,63,0.00,,,-99.99,145.399994,,2013-02-16 21:32:00,
2013-02-16 16:42:00,58.0,47.0,-100.00,NW,324,13.0,-999.0,65,0.00,,,-99.99,169.899994,,2013-02-16 21:42:00,
2013-02-16 16:52:00,58.0,47.0,-100.00,NW,324,13.0,-999.0,65,0.00,,,-99.99,169.899994,,2013-02-16 21:52:00,
2013-02-16 17:01:00,58.0,46.0,-100.00,NW,314,13.0,-999.0,65,0.00,,,-99.99,204.199997,,2013-02-16 22:01:00,
2013-02-16 17:11:00,58.0,45.0,-100.00,NW,317,13.0,-999.0,62,0.00,,,-99.99,225.899994,,2013-02-16 22:11:00,
2013-02-16 17:21:00,58.0,45.0,-100.00,NW,317,13.0,-999.0,62,0.00,,,-99.99,225.899994,,2013-02-16 22:21:00,
2013-02-16 17:32:00,57.0,45.0,-100.00,NW,323,13.0,-999.0,62,0.00,,,-99.99,173.699997,,2013-02-16 22:32:00,
2013-02-16 17:42:00,57.0,45.0,-100.00,NW,318,11.0,-999.0,63,0.00,,,-99.99,89.199997,,2013-02-16 22:42:00,
2013-02-16 17:52:00,57.0,45.0,-100.00,NW,318,11.0,-999.0,63,0.00,,,-99.99,89.199997,,2013-02-16 22:52:00,
2013-02-16 18:02:00,57.0,44.0,-100.00,NW,316,10.0,-999.0,62,0.00,,,-99.99,49.099998,,2013-02-16 23:02:00,
2013-02-16 18:11:00,56.0,44.0,-100.00,NW,318,10.0,-999.0,63,0.00,,,-99.99,27.100000,,2013-02-16 23:11:00,
2013-02-16 18:21:00,56.0,44.0,-100.00,NW,318,10.0,-999.0,63,0.00,,,-99.99,27.100000,,2013-02-16 23:21:00,
2013-02-16 18:31:00,55.0,44.0,-100.00,NW,320,10.0,-999.0,64,0.00,,,-99.99,13.800000,,2013-02-16 23:31:00,
2013-02-16 18:42:00,55.0,44.0,-100.00,NW,316,9.0,-999.0,66,0.00,,,-99.99,3.200000,,2013-02-16 23:42:00,
2013-02-16 18:52:00,55.0,44.0,-100.00,NW,316,9.0,-999.0,66,0.00,,,-99.99,3.200000,,2013-02-16 23:52:00,
2013-02-16 19:02:00,54.0,44.0,-100.00,NW,318,7.0,-999.0,67,0.00,,,-99.99,0.300000,,2013-02-17 00:02:00,
2013-02-16 19:12:00,54.0,44.0,-100.00,NW,315,8.0,-999.0,67,0.00,,,-99.99,0.000000,,2013-02-17 00:12:00,
2013-02-16 19:22:00,54.0,44.0,-100.00,NW,315,8.0,-999.0,67,0.00,,,-99.99,0.000000,,2013-02-17 00:22:00,
2013-02-16 19:32:00,54.0,42.0,-100.00,NW,314,10.0,-999.0,61,0.00,,,-99.99,0.000000,,2013-02-17 00:32:00,
2013-02-16 19:42:00,54.0,40.0,-100.00,NW,314,8.0,-999.0,57,0.00,,,-99.99,0.000000,,2013-02-17 00:42:00,
2013-02-16 19:52:00,54.0,40.0,-100.00,NW,314,8.0,-999.0,57,0.00,,,-99.99,0.000000,,2013-02-17 00:52:00,
2013-02-16 20:01:00,54.0,39.0,-100.00,NW,310,7.0,-999.0,57,0.00,,,-99.99,0.000000,,2013-02-17 01:01:00,
2013-02-16 20:11:00,54.0,39.0,-100.00,NW,310,7.0,-999.0,57,0.00,,,-99.99,0.000000,,2013-02-17 01:11:00,
2013-02-16 20:21:00,54.0,40.0,-100.00,NW,312,6.0,-999.0,58,0.00,,,-99.99,0.000000,,2013-02-17 01:21:00,
2013-02-16 20:31:00,54.0,40.0,-100.00,NW,318,6.0,-999.0,59,0.00,,,-99.99,0.000000,,2013-02-17 01:31:00,
2013-02-16 20:41:00,54.0,41.0,-100.00,NW,313,9.0,-999.0,59,0.00,,,-99.99,0.000000,,2013-02-17 01:41:00,
2013-02-16 20:52:00,54.0,41.0,-100.00,NW,313,9.0,-999.0,59,0.00,,,-99.99,0.000000,,2013-02-17 01:52:00,
2013-02-16 21:01:00,55.0,41.0,-100.00,NW,320,9.0,-999.0,58,0.00,,,-99.99,0.000000,,2013-02-17 02:01:00,
2013-02-16 21:11:00,55.0,40.0,-100.00,NW,317,8.0,-999.0,58,0.00,,,-99.99,0.000000,,2013-02-17 02:11:00,
2013-02-16 21:21:00,55.0,40.0,-100.00,NW,317,8.0,-999.0,58,0.00,,,-99.99,0.000000,,2013-02-17 02:21:00,
2013-02-16 21:31:00,54.0,40.0,-100.00,NW,318,8.0,-999.0,58,0.00,,,-99.99,0.000000,,2013-02-17 02:31:00,
2013-02-16 21:42:00,54.0,40.0,-100.00,NW,319,10.0,-999.0,57,0.00,,,-99.99,0.000000,,2013-02-17 02:42:00,
2013-02-16 21:52:00,54.0,40.0,-100.00,NW,319,10.0,-999.0,57,0.00,,,-99.99,0.000000,,2013-02-17 02:52:00,
2013-02-16 22:02:00,54.0,39.0,-100.00,NW,316,9.0,-999.0,56,0.00,,,-99.99,0.000000,,2013-02-17 03:02:00,
2013-02-16 22:11:00,54.0,38.0,-100.00,NW,316,9.0,-999.0,54,0.00,,,-99.99,0.000000,,2013-02-17 03:11:00,
2013-02-16 22:21:00,54.0,38.0,-100.00,NW,316,9.0,-999.0,54,0.00,,,-99.99,0.000000,,2013-02-17 03:21:00,
2013-02-16 22:31:00,54.0,37.0,-100.00,NW,316,10.0,-999.0,53,0.00,,,-99.99,0.000000,,2013-02-17 03:31:00,
2013-02-16 22:42:00,54.0,36.0,-100.00,NW,314,10.0,-999.0,51,0.00,,,-99.99,0.000000,,2013-02-17 03:42:00,
2013-02-16 22:52:00,54.0,36.0,-100.00,NW,314,10.0,-999.0,51,0.00,,,-99.99,0.000000,,2013-02-17 03:52:00,
2013-02-16 23:01:00,54.0,36.0,-100.00,NW,314,10.0,-999.0,50,0.00,,,-99.99,0.000000,,2013-02-17 04:01:00,
2013-02-16 23:11:00,54.0,35.0,-100.00,NNW,334,11.0,-999.0,49,0.00,,,-99.99,0.000000,,2013-02-17 04:11:00,
2013-02-16 23:21:00,54.0,35.0,-100.00,NNW,334,11.0,-999.0,49,0.00,,,-99.99,0.000000,,2013-02-17 04:21:00,
2013-02-16 23:31:00,53.0,34.0,-100.00,NNW,345,14.0,-999.0,48,0.00,,,-99.99,0.000000,,2013-02-17 04:31:00,
2013-02-16 23:41:00,52.0,33.0,-100.00,NNW,347,13.0,-999.0,48,0.00,,,-99.99,0.000000,,2013-02-17 04:41:00,
2013-02-16 23:52:00,52.0,33.0,-100.00,NNW,347,13.0,-999.0,48,0.00,,,-99.99,0.000000,,2013-02-17 04:52:00,